Location: Unspecified
(48.8656°N, 0.0000°E)
Time: 13:05:41
(UTC+00:00)

Transit 2A Rocket - Pass Details

Date: 17 June 2019
Orbit: 588 x 915 km, 66.7° (Epoch: 22 July)

Event Time Altitude Azimuth Distance (km) Brightness Sun altitude
Rises 19:16:33 0° 325° (NW) 3,378 9.7 5.9°
Reaches altitude 10° 19:19:09 10° 328° (NNW) 2,391 8.8 5.6°
Maximum altitude 19:24:34 62° 50° (NE) 844 5.3 4.8°
Drops below altitude 10° 19:29:27 10° 131° (SE) 2,159 6.7 4.1°
Sets 19:31:42 0° 135° (SE) 3,023 7.4 3.8°
